GEFSMW_prec_meanprecacc_120.txt.gz
Total_Precipitation_Accumulation
1.40 1.65 1.83 2.10 2.42 2.59 2.82 3.05 3.21 3.27 3.09 2.81 2.53 2.30 2.10 1.97 1.78 1.69 1.61 1.57 1.56 1.63 1.88 1.78 1.88 1.92 1.88 1.86 1.91 1.90 1.76 1.49 1.71 1.74 1.32 0.92 0.73 0.69 0.51 0.49 0.50 0.48 0.51
1.33 1.60 1.71 1.79 2.05 2.32 2.65 2.89 3.13 3.16 2.91 2.58 2.37 2.25 2.16 1.86 1.63 1.62 1.59 1.60 1.68 1.67 1.74 1.77 1.76 1.79 1.79 1.69 1.66 1.74 1.57 1.32 1.50 1.58 1.49 0.96 0.74 0.61 0.47 0.53 0.59 0.61 0.67
1.60 1.75 1.61 1.62 1.75 1.96 2.16 2.34 2.44 2.38 2.21 2.15 2.14 2.12 2.09 1.83 1.76 1.83 1.86 1.84 1.86 1.83 1.82 1.75 1.63 1.51 1.46 1.39 1.41 1.50 1.48 1.33 1.33 1.52 1.68 1.30 0.92 0.82 0.64 0.64 0.65 0.74 0.81
1.35 1.39 1.47 1.52 1.62 1.77 1.96 2.13 2.07 1.89 1.73 1.76 1.90 1.96 1.90 1.86 2.01 2.22 2.12 1.89 1.74 1.61 1.45 1.32 1.30 1.27 1.25 1.15 1.10 1.20 1.24 1.17 1.11 1.24 1.40 1.47 1.43 1.30 0.85 0.61 0.58 0.70 0.80
1.07 1.06 1.17 1.26 1.29 1.45 1.60 1.75 1.82 1.71 1.63 1.61 1.67 1.78 1.78 1.76 1.76 1.75 1.71 1.58 1.41 1.22 1.05 0.98 0.98 0.97 0.96 0.91 0.87 0.89 0.91 0.95 0.95 1.08 1.24 1.34 1.40 1.39 1.25 0.88 0.82 0.83 0.77
0.88 0.91 0.93 0.99 1.06 1.15 1.17 1.17 1.28 1.33 1.35 1.37 1.40 1.43 1.41 1.34 1.26 1.18 1.15 1.07 0.98 0.82 0.70 0.66 0.70 0.75 0.81 0.80 0.77 0.79 0.78 0.84 0.95 0.98 1.09 1.22 1.22 1.22 1.30 1.09 0.98 0.92 0.82
0.64 0.72 0.73 0.75 0.82 0.86 0.85 0.87 0.96 1.08 1.07 1.01 1.03 1.07 1.04 0.98 0.90 0.87 0.84 0.80 0.74 0.63 0.57 0.54 0.58 0.65 0.72 0.69 0.65 0.66 0.75 0.88 0.97 0.95 1.01 1.14 1.17 1.20 1.30 1.26 1.15 1.07 1.02
0.50 0.58 0.65 0.69 0.68 0.66 0.68 0.71 0.77 0.82 0.79 0.74 0.76 0.77 0.79 0.77 0.71 0.70 0.61 0.58 0.58 0.59 0.58 0.53 0.54 0.55 0.60 0.59 0.62 0.62 0.70 0.82 0.90 0.87 1.00 1.11 1.17 1.30 1.42 1.45 1.41 1.27 1.16
0.48 0.48 0.49 0.52 0.51 0.48 0.49 0.54 0.64 0.68 0.71 0.70 0.67 0.63 0.63 0.60 0.55 0.51 0.48 0.45 0.47 0.51 0.57 0.57 0.58 0.59 0.63 0.66 0.73 0.77 0.85 1.00 1.06 1.11 1.22 1.25 1.21 1.26 1.34 1.40 1.45 1.48 1.31
0.25 0.24 0.25 0.25 0.25 0.29 0.36 0.44 0.47 0.48 0.52 0.53 0.55 0.55 0.51 0.46 0.40 0.36 0.36 0.36 0.37 0.42 0.50 0.57 0.58 0.60 0.61 0.65 0.76 0.95 1.10 1.20 1.25 1.28 1.36 1.40 1.35 1.36 1.42 1.42 1.47 1.56 1.47
0.13 0.17 0.18 0.22 0.23 0.27 0.36 0.44 0.45 0.46 0.48 0.47 0.47 0.47 0.45 0.42 0.36 0.31 0.30 0.31 0.34 0.37 0.40 0.47 0.51 0.54 0.57 0.61 0.70 0.83 1.02 1.13 1.16 1.19 1.25 1.27 1.26 1.25 1.23 1.30 1.42 1.54 1.54
0.16 0.17 0.18 0.24 0.29 0.29 0.31 0.36 0.40 0.45 0.54 0.63 0.71 0.72 0.63 0.54 0.45 0.36 0.31 0.30 0.33 0.36 0.37 0.37 0.41 0.42 0.46 0.53 0.63 0.75 0.86 0.95 0.98 0.99 0.99 0.96 0.95 0.98 0.98 1.06 1.14 1.24 1.41
0.13 0.11 0.14 0.21 0.27 0.31 0.33 0.37 0.39 0.43 0.53 0.68 0.92 1.03 0.95 0.81 0.63 0.44 0.30 0.25 0.25 0.28 0.29 0.31 0.36 0.43 0.54 0.63 0.69 0.73 0.76 0.78 0.82 0.88 0.93 0.87 0.83 0.84 0.87 0.90 0.89 0.94 1.11
0.09 0.08 0.11 0.17 0.23 0.30 0.37 0.42 0.45 0.44 0.51 0.63 0.79 0.86 0.78 0.68 0.56 0.38 0.25 0.20 0.20 0.22 0.26 0.32 0.38 0.46 0.54 0.62 0.68 0.69 0.68 0.64 0.60 0.64 0.69 0.72 0.70 0.70 0.75 0.79 0.80 0.83 0.96
0.10 0.09 0.12 0.17 0.20 0.24 0.31 0.32 0.28 0.23 0.28 0.40 0.46 0.52 0.46 0.36 0.31 0.26 0.22 0.20 0.21 0.23 0.27 0.32 0.39 0.43 0.45 0.46 0.43 0.43 0.42 0.41 0.38 0.38 0.41 0.47 0.53 0.56 0.58 0.61 0.73 0.81 0.87
0.08 0.08 0.12 0.17 0.18 0.17 0.17 0.14 0.12 0.13 0.17 0.25 0.30 0.36 0.38 0.31 0.25 0.21 0.17 0.16 0.19 0.23 0.28 0.33 0.39 0.39 0.34 0.38 0.29 0.21 0.21 0.26 0.29 0.33 0.36 0.37 0.39 0.43 0.44 0.45 0.52 0.66 0.75
0.04 0.04 0.07 0.09 0.07 0.06 0.06 0.07 0.08 0.12 0.18 0.23 0.27 0.36 0.39 0.36 0.30 0.23 0.21 0.21 0.23 0.25 0.28 0.29 0.29 0.31 0.35 0.32 0.25 0.16 0.15 0.19 0.23 0.28 0.32 0.29 0.29 0.33 0.36 0.37 0.36 0.39 0.47
0.03 0.02 0.02 0.02 0.02 0.02 0.03 0.06 0.09 0.13 0.18 0.23 0.28 0.33 0.38 0.36 0.33 0.33 0.35 0.36 0.34 0.32 0.31 0.29 0.28 0.33 0.34 0.27 0.22 0.17 0.16 0.21 0.24 0.27 0.29 0.29 0.26 0.26 0.32 0.37 0.37 0.34 0.33
0.04 0.03 0.02 0.02 0.02 0.03 0.04 0.08 0.13 0.16 0.20 0.26 0.33 0.37 0.41 0.41 0.40 0.41 0.42 0.44 0.44 0.39 0.35 0.33 0.35 0.38 0.40 0.31 0.22 0.18 0.20 0.27 0.29 0.31 0.29 0.28 0.27 0.24 0.21 0.28 0.35 0.38 0.38
0.04 0.04 0.03 0.03 0.03 0.06 0.09 0.14 0.17 0.21 0.26 0.31 0.37 0.41 0.45 0.49 0.49 0.52 0.52 0.51 0.53 0.47 0.41 0.37 0.40 0.44 0.50 0.46 0.30 0.25 0.27 0.35 0.37 0.43 0.39 0.30 0.24 0.23 0.21 0.25 0.32 0.35 0.37
0.04 0.04 0.04 0.05 0.09 0.13 0.17 0.21 0.25 0.30 0.28 0.30 0.37 0.47 0.53 0.59 0.63 0.66 0.67 0.66 0.64 0.62 0.58 0.50 0.48 0.53 0.57 0.57 0.39 0.30 0.34 0.44 0.51 0.54 0.46 0.40 0.28 0.24 0.24 0.26 0.32 0.32 0.35
0.06 0.06 0.07 0.08 0.10 0.15 0.21 0.24 0.25 0.26 0.30 0.34 0.42 0.49 0.55 0.53 0.56 0.70 0.74 0.77 0.81 0.76 0.71 0.67 0.59 0.60 0.64 0.59 0.48 0.35 0.33 0.44 0.62 0.71 0.64 0.56 0.43 0.33 0.29 0.27 0.28 0.26 0.26
0.08 0.09 0.10 0.12 0.16 0.20 0.27 0.33 0.34 0.38 0.39 0.41 0.47 0.53 0.54 0.57 0.66 0.75 0.79 0.83 0.89 0.87 0.80 0.79 0.75 0.70 0.73 0.70 0.50 0.40 0.35 0.39 0.57 0.75 0.77 0.64 0.50 0.43 0.37 0.32 0.30 0.30 0.29
0.09 0.10 0.11 0.15 0.19 0.23 0.30 0.40 0.47 0.51 0.54 0.55 0.55 0.58 0.62 0.62 0.66 0.77 0.81 0.86 0.91 0.96 0.93 0.88 0.86 0.85 0.84 0.80 0.68 0.56 0.47 0.48 0.57 0.70 0.76 0.67 0.61 0.54 0.52 0.44 0.37 0.35 0.39
0.10 0.12 0.16 0.22 0.26 0.31 0.37 0.43 0.49 0.56 0.60 0.60 0.61 0.60 0.62 0.68 0.75 0.80 0.84 0.81 0.87 0.85 0.86 0.87 0.89 0.92 0.91 0.77 0.68 0.66 0.60 0.65 0.73 0.80 0.93 0.87 0.83 0.76 0.69 0.63 0.59 0.58 0.57
0.16 0.20 0.22 0.26 0.29 0.35 0.42 0.45 0.53 0.62 0.69 0.72 0.72 0.67 0.64 0.70 0.77 0.82 0.79 0.69 0.63 0.59 0.57 0.59 0.63 0.66 0.62 0.56 0.49 0.49 0.51 0.56 0.66 0.74 0.92 0.95 0.93 0.90 0.86 0.77 0.72 0.70 0.67

GEFSMW_prec_meanprecacc_126.txt.gz
Total_Precipitation_Accumulation
1.54 1.84 2.05 2.41 2.81 3.02 3.28 3.50 3.50 3.43 3.21 2.90 2.62 2.38 2.17 2.04 1.84 1.72 1.63 1.59 1.58 1.66 1.92 1.80 1.89 1.93 1.88 1.87 1.93 1.92 1.77 1.50 1.72 1.75 1.33 0.93 0.74 0.70 0.52 0.50 0.50 0.48 0.52
1.46 1.88 1.98 2.06 2.41 2.69 3.01 3.26 3.46 3.37 3.05 2.68 2.44 2.31 2.22 1.92 1.67 1.65 1.61 1.61 1.70 1.71 1.77 1.79 1.77 1.80 1.79 1.69 1.68 1.75 1.58 1.33 1.51 1.58 1.49 0.97 0.74 0.61 0.47 0.53 0.59 0.61 0.67
1.75 1.99 1.95 1.91 2.08 2.32 2.43 2.54 2.67 2.58 2.36 2.27 2.23 2.19 2.16 1.89 1.80 1.86 1.88 1.85 1.90 1.86 1.84 1.76 1.63 1.51 1.46 1.40 1.43 1.52 1.49 1.33 1.33 1.52 1.68 1.30 0.93 0.82 0.65 0.64 0.65 0.74 0.81
1.47 1.52 1.65 1.76 1.87 2.01 2.17 2.28 2.27 2.09 1.85 1.85 1.98 2.02 1.94 1.89 2.04 2.25 2.15 1.93 1.77 1.64 1.47 1.33 1.31 1.27 1.25 1.16 1.10 1.21 1.25 1.17 1.12 1.24 1.40 1.47 1.43 1.30 0.85 0.61 0.58 0.70 0.80
1.13 1.14 1.27 1.41 1.45 1.61 1.76 1.90 1.99 1.89 1.74 1.70 1.75 1.85 1.83 1.79 1.79 1.78 1.74 1.61 1.44 1.24 1.07 0.99 0.98 0.98 0.97 0.92 0.88 0.90 0.91 0.95 0.95 1.08 1.25 1.34 1.40 1.39 1.25 0.88 0.82 0.83 0.77
0.93 0.97 1.01 1.09 1.17 1.26 1.28 1.28 1.42 1.48 1.46 1.45 1.47 1.49 1.46 1.39 1.30 1.20 1.17 1.09 1.00 0.83 0.70 0.67 0.70 0.75 0.81 0.80 0.78 0.80 0.79 0.84 0.95 0.98 1.09 1.22 1.22 1.22 1.30 1.09 0.98 0.93 0.82
0.68 0.76 0.77 0.80 0.86 0.91 0.91 0.94 1.05 1.18 1.16 1.09 1.10 1.12 1.08 1.02 0.95 0.92 0.87 0.82 0.75 0.64 0.58 0.55 0.58 0.65 0.72 0.69 0.66 0.67 0.75 0.88 0.97 0.95 1.01 1.14 1.17 1.20 1.30 1.26 1.15 1.07 1.02
0.52 0.60 0.67 0.72 0.71 0.69 0.72 0.76 0.81 0.87 0.86 0.80 0.80 0.79 0.82 0.80 0.74 0.73 0.63 0.59 0.60 0.60 0.58 0.53 0.54 0.55 0.60 0.59 0.63 0.63 0.70 0.82 0.90 0.87 1.01 1.11 1.17 1.30 1.42 1.45 1.41 1.27 1.16
0.49 0.49 0.51 0.54 0.53 0.50 0.51 0.57 0.67 0.72 0.75 0.73 0.69 0.64 0.64 0.62 0.57 0.52 0.49 0.46 0.48 0.51 0.57 0.57 0.58 0.60 0.64 0.66 0.73 0.77 0.86 1.00 1.06 1.11 1.22 1.25 1.21 1.26 1.34 1.40 1.45 1.48 1.31
0.27 0.25 0.26 0.26 0.26 0.30 0.38 0.46 0.50 0.51 0.54 0.55 0.57 0.56 0.53 0.47 0.41 0.37 0.37 0.37 0.38 0.42 0.51 0.58 0.58 0.60 0.61 0.65 0.76 0.95 1.10 1.20 1.25 1.28 1.36 1.40 1.35 1.36 1.42 1.42 1.47 1.56 1.47
0.15 0.19 0.20 0.23 0.24 0.28 0.37 0.46 0.48 0.48 0.50 0.49 0.49 0.48 0.45 0.43 0.37 0.32 0.31 0.32 0.34 0.38 0.43 0.48 0.52 0.54 0.57 0.61 0.70 0.83 1.02 1.13 1.16 1.19 1.25 1.27 1.26 1.25 1.23 1.30 1.42 1.54 1.54
0.18 0.20 0.20 0.26 0.30 0.30 0.31 0.37 0.41 0.46 0.55 0.65 0.73 0.73 0.64 0.55 0.46 0.36 0.32 0.31 0.34 0.38 0.38 0.38 0.41 0.43 0.46 0.53 0.64 0.76 0.87 0.95 0.98 0.99 0.99 0.97 0.95 0.98 0.99 1.06 1.14 1.24 1.41
0.16 0.17 0.18 0.23 0.28 0.32 0.34 0.37 0.40 0.44 0.53 0.69 0.93 1.04 0.96 0.82 0.64 0.45 0.31 0.27 0.27 0.29 0.30 0.32 0.37 0.44 0.55 0.64 0.70 0.74 0.77 0.78 0.82 0.89 0.93 0.87 0.84 0.85 0.88 0.90 0.89 0.94 1.12
0.12 0.12 0.13 0.18 0.24 0.31 0.38 0.43 0.45 0.44 0.51 0.64 0.80 0.86 0.80 0.70 0.57 0.40 0.27 0.22 0.21 0.24 0.28 0.33 0.39 0.47 0.55 0.63 0.69 0.69 0.68 0.65 0.61 0.65 0.70 0.73 0.71 0.71 0.76 0.79 0.81 0.83 0.96
0.12 0.11 0.13 0.18 0.21 0.25 0.32 0.33 0.29 0.24 0.30 0.41 0.47 0.53 0.48 0.38 0.33 0.29 0.25 0.22 0.23 0.25 0.29 0.34 0.40 0.44 0.45 0.47 0.44 0.44 0.43 0.41 0.38 0.38 0.41 0.48 0.53 0.56 0.58 0.61 0.73 0.81 0.87
0.10 0.10 0.14 0.18 0.19 0.18 0.19 0.15 0.13 0.13 0.18 0.26 0.31 0.38 0.41 0.34 0.27 0.24 0.21 0.19 0.22 0.26 0.30 0.34 0.39 0.40 0.35 0.38 0.30 0.21 0.21 0.26 0.29 0.33 0.36 0.37 0.39 0.43 0.44 0.45 0.53 0.66 0.76
0.09 0.07 0.09 0.10 0.08 0.07 0.08 0.09 0.10 0.14 0.20 0.26 0.31 0.39 0.42 0.39 0.34 0.26 0.24 0.24 0.26 0.28 0.30 0.30 0.29 0.31 0.35 0.32 0.25 0.16 0.15 0.19 0.23 0.28 0.32 0.29 0.29 0.33 0.36 0.37 0.36 0.39 0.47
0.11 0.06 0.06 0.05 0.05 0.05 0.07 0.11 0.15 0.20 0.25 0.30 0.36 0.42 0.47 0.43 0.38 0.37 0.39 0.40 0.39 0.37 0.35 0.32 0.29 0.34 0.35 0.28 0.23 0.18 0.17 0.22 0.25 0.27 0.30 0.29 0.26 0.26 0.32 0.38 0.37 0.34 0.33
0.12 0.11 0.08 0.08 0.09 0.08 0.09 0.15 0.21 0.26 0.32 0.40 0.49 0.54 0.59 0.58 0.56 0.56 0.52 0.54 0.54 0.48 0.43 0.38 0.39 0.42 0.42 0.34 0.25 0.21 0.23 0.29 0.30 0.32 0.30 0.29 0.28 0.25 0.22 0.30 0.36 0.39 0.38
0.12 0.12 0.10 0.10 0.11 0.13 0.17 0.24 0.26 0.30 0.38 0.46 0.58 0.68 0.73 0.76 0.74 0.76 0.72 0.66 0.65 0.58 0.51 0.46 0.47 0.50 0.56 0.52 0.37 0.33 0.35 0.39 0.40 0.45 0.40 0.31 0.26 0.25 0.22 0.27 0.33 0.36 0.37
0.16 0.14 0.12 0.15 0.18 0.23 0.29 0.35 0.41 0.47 0.47 0.50 0.57 0.68 0.78 0.84 0.88 0.93 0.88 0.83 0.79 0.77 0.72 0.63 0.60 0.64 0.68 0.69 0.51 0.41 0.42 0.49 0.55 0.57 0.49 0.43 0.31 0.27 0.27 0.28 0.34 0.33 0.36
0.21 0.21 0.19 0.24 0.28 0.33 0.39 0.45 0.49 0.46 0.51 0.55 0.61 0.65 0.71 0.70 0.74 0.91 0.94 0.94 0.95 0.91 0.87 0.82 0.71 0.71 0.75 0.70 0.57 0.43 0.39 0.50 0.69 0.77 0.70 0.61 0.48 0.36 0.31 0.28 0.29 0.27 0.27
0.17 0.18 0.20 0.27 0.34 0.42 0.50 0.57 0.55 0.58 0.60 0.64 0.72 0.77 0.77 0.79 0.86 0.92 0.95 0.98 1.02 0.99 0.93 0.91 0.85 0.80 0.82 0.79 0.58 0.47 0.43 0.47 0.65 0.81 0.82 0.69 0.54 0.46 0.39 0.34 0.32 0.31 0.31
0.12 0.14 0.19 0.25 0.31 0.37 0.46 0.58 0.67 0.75 0.79 0.83 0.84 0.86 0.90 0.87 0.87 0.96 1.00 1.04 1.08 1.12 1.06 0.99 0.94 0.92 0.90 0.85 0.73 0.61 0.54 0.56 0.66 0.77 0.82 0.72 0.65 0.56 0.53 0.45 0.38 0.36 0.39
0.12 0.15 0.22 0.29 0.35 0.41 0.48 0.56 0.64 0.72 0.77 0.81 0.82 0.81 0.83 0.88 0.92 0.96 1.00 0.99 1.04 1.01 0.99 0.97 0.98 0.99 0.97 0.82 0.73 0.70 0.66 0.72 0.81 0.87 0.98 0.91 0.85 0.78 0.71 0.64 0.60 0.59 0.58
0.18 0.23 0.27 0.32 0.37 0.44 0.54 0.61 0.69 0.79 0.86 0.89 0.88 0.82 0.79 0.86 0.92 0.98 0.97 0.88 0.83 0.79 0.77 0.77 0.79 0.79 0.73 0.65 0.58 0.57 0.58 0.63 0.72 0.79 0.95 0.97 0.95 0.92 0.87 0.78 0.73 0.71 0.68

GEFSMW_prec_meanprecacc_132.txt.gz
Total_Precipitation_Accumulation
1.61 1.93 2.17 2.64 3.14 3.41 3.68 3.83 3.77 3.64 3.38 3.03 2.74 2.48 2.26 2.12 1.90 1.77 1.68 1.63 1.62 1.70 1.95 1.83 1.91 1.94 1.90 1.88 1.94 1.92 1.78 1.50 1.72 1.75 1.33 0.93 0.74 0.70 0.52 0.51 0.51 0.49 0.53
1.53 1.97 2.13 2.27 2.68 3.07 3.43 3.64 3.80 3.65 3.25 2.82 2.56 2.41 2.34 2.03 1.74 1.70 1.65 1.64 1.74 1.74 1.79 1.81 1.79 1.81 1.81 1.71 1.69 1.76 1.59 1.34 1.51 1.58 1.49 0.97 0.74 0.62 0.48 0.54 0.59 0.62 0.68
1.81 2.06 2.09 2.11 2.33 2.68 2.86 2.91 3.02 2.92 2.62 2.46 2.38 2.33 2.28 1.99 1.86 1.90 1.90 1.87 1.92 1.88 1.86 1.77 1.65 1.52 1.48 1.41 1.44 1.53 1.50 1.34 1.34 1.53 1.68 1.30 0.93 0.82 0.65 0.64 0.65 0.74 0.82
1.50 1.56 1.77 1.95 2.12 2.32 2.50 2.58 2.53 2.39 2.14 2.07 2.11 2.10 2.00 1.94 2.08 2.29 2.18 1.96 1.79 1.65 1.48 1.34 1.32 1.27 1.26 1.16 1.11 1.22 1.26 1.17 1.12 1.25 1.40 1.47 1.43 1.30 0.85 0.61 0.59 0.70 0.80
1.18 1.18 1.34 1.56 1.62 1.85 2.01 2.11 2.15 2.13 1.99 1.90 1.88 1.94 1.88 1.84 1.83 1.81 1.76 1.63 1.45 1.25 1.08 0.99 0.99 0.98 0.97 0.92 0.88 0.91 0.92 0.95 0.96 1.09 1.25 1.35 1.40 1.39 1.25 0.88 0.82 0.83 0.77
0.98 1.03 1.12 1.26 1.32 1.40 1.42 1.40 1.52 1.65 1.65 1.60 1.59 1.59 1.53 1.44 1.34 1.23 1.18 1.10 1.00 0.84 0.72 0.68 0.70 0.76 0.82 0.81 0.79 0.80 0.79 0.85 0.96 1.00 1.10 1.23 1.22 1.23 1.30 1.09 0.98 0.93 0.82
0.71 0.82 0.86 0.92 0.98 1.01 1.00 1.01 1.13 1.31 1.28 1.18 1.18 1.20 1.15 1.08 0.99 0.95 0.89 0.84 0.76 0.66 0.60 0.57 0.60 0.67 0.73 0.70 0.67 0.68 0.76 0.89 0.98 0.96 1.02 1.15 1.18 1.21 1.30 1.26 1.15 1.07 1.02
0.53 0.62 0.70 0.78 0.79 0.76 0.78 0.80 0.89 0.97 0.93 0.86 0.87 0.86 0.87 0.84 0.78 0.76 0.65 0.62 0.62 0.62 0.61 0.56 0.56 0.57 0.61 0.61 0.64 0.64 0.71 0.83 0.91 0.88 1.02 1.12 1.18 1.31 1.42 1.45 1.41 1.27 1.16
0.50 0.50 0.52 0.57 0.57 0.55 0.54 0.60 0.71 0.78 0.81 0.79 0.77 0.72 0.70 0.66 0.60 0.55 0.51 0.47 0.49 0.52 0.59 0.58 0.59 0.61 0.64 0.67 0.74 0.78 0.86 1.01 1.07 1.12 1.22 1.25 1.21 1.26 1.34 1.40 1.45 1.48 1.31
0.28 0.26 0.28 0.28 0.29 0.33 0.41 0.49 0.53 0.54 0.58 0.59 0.63 0.63 0.59 0.52 0.44 0.40 0.38 0.37 0.39 0.43 0.52 0.58 0.60 0.63 0.62 0.66 0.77 0.95 1.11 1.20 1.25 1.28 1.36 1.40 1.35 1.36 1.42 1.42 1.47 1.56 1.47
0.16 0.20 0.22 0.25 0.27 0.31 0.40 0.49 0.51 0.51 0.54 0.53 0.53 0.52 0.49 0.46 0.40 0.35 0.33 0.33 0.35 0.39 0.43 0.49 0.53 0.56 0.59 0.62 0.71 0.84 1.03 1.13 1.16 1.19 1.25 1.27 1.26 1.25 1.23 1.30 1.42 1.54 1.54
0.20 0.22 0.21 0.28 0.32 0.32 0.33 0.39 0.44 0.48 0.58 0.67 0.75 0.75 0.67 0.58 0.48 0.39 0.34 0.33 0.35 0.39 0.40 0.40 0.42 0.43 0.47 0.55 0.65 0.77 0.87 0.95 0.99 0.99 0.99 0.97 0.96 0.98 0.99 1.06 1.14 1.24 1.41
0.17 0.17 0.19 0.24 0.29 0.33 0.35 0.39 0.43 0.46 0.55 0.71 0.95 1.06 0.98 0.84 0.66 0.48 0.33 0.28 0.28 0.31 0.32 0.34 0.38 0.45 0.56 0.66 0.72 0.75 0.77 0.79 0.82 0.89 0.93 0.88 0.84 0.85 0.88 0.90 0.89 0.94 1.12
0.12 0.12 0.13 0.19 0.24 0.32 0.39 0.44 0.47 0.46 0.52 0.65 0.81 0.88 0.81 0.72 0.61 0.43 0.29 0.24 0.23 0.26 0.29 0.34 0.41 0.48 0.56 0.66 0.71 0.72 0.70 0.66 0.61 0.65 0.71 0.73 0.71 0.71 0.76 0.80 0.81 0.83 0.97
0.13 0.11 0.14 0.19 0.22 0.26 0.34 0.35 0.31 0.26 0.30 0.42 0.48 0.54 0.49 0.40 0.36 0.33 0.28 0.26 0.26 0.27 0.31 0.36 0.42 0.45 0.46 0.48 0.46 0.47 0.46 0.43 0.40 0.39 0.42 0.48 0.54 0.56 0.58 0.61 0.73 0.81 0.87
0.11 0.11 0.15 0.20 0.20 0.20 0.20 0.17 0.16 0.16 0.20 0.27 0.33 0.40 0.43 0.37 0.31 0.27 0.24 0.24 0.26 0.30 0.34 0.37 0.42 0.42 0.36 0.40 0.32 0.23 0.22 0.27 0.30 0.34 0.37 0.38 0.40 0.43 0.45 0.45 0.53 0.67 0.76
0.11 0.09 0.12 0.13 0.10 0.10 0.10 0.11 0.13 0.18 0.24 0.30 0.35 0.44 0.46 0.43 0.37 0.30 0.28 0.28 0.30 0.32 0.33 0.32 0.31 0.33 0.37 0.34 0.27 0.18 0.16 0.20 0.23 0.29 0.32 0.29 0.29 0.34 0.37 0.38 0.37 0.40 0.48
0.13 0.08 0.08 0.09 0.08 0.08 0.10 0.15 0.21 0.27 0.31 0.37 0.43 0.51 0.55 0.49 0.44 0.43 0.44 0.44 0.43 0.41 0.39 0.34 0.31 0.35 0.36 0.31 0.25 0.20 0.18 0.23 0.26 0.29 0.31 0.31 0.28 0.27 0.33 0.38 0.37 0.35 0.34
0.14 0.14 0.11 0.12 0.13 0.12 0.13 0.21 0.29 0.34 0.41 0.47 0.56 0.61 0.67 0.65 0.62 0.63 0.61 0.63 0.60 0.53 0.48 0.43 0.43 0.45 0.45 0.37 0.29 0.24 0.25 0.31 0.32 0.34 0.32 0.31 0.29 0.27 0.23 0.31 0.37 0.39 0.39
0.15 0.15 0.13 0.15 0.16 0.18 0.24 0.33 0.36 0.40 0.46 0.53 0.65 0.77 0.83 0.85 0.84 0.86 0.84 0.78 0.74 0.65 0.58 0.52 0.53 0.56 0.61 0.59 0.44 0.39 0.39 0.43 0.44 0.49 0.44 0.34 0.28 0.27 0.24 0.28 0.35 0.38 0.39
0.21 0.18 0.16 0.20 0.25 0.31 0.39 0.47 0.54 0.61 0.60 0.63 0.70 0.82 0.91 0.96 1.01 1.08 1.04 0.97 0.91 0.87 0.83 0.74 0.71 0.74 0.77 0.79 0.61 0.50 0.49 0.54 0.60 0.61 0.53 0.47 0.37 0.32 0.32 0.33 0.38 0.37 0.40
0.26 0.26 0.26 0.31 0.35 0.41 0.50 0.59 0.65 0.63 0.67 0.72 0.78 0.82 0.87 0.86 0.91 1.08 1.11 1.10 1.09 1.02 0.97 0.94 0.82 0.81 0.84 0.78 0.65 0.50 0.45 0.56 0.74 0.81 0.74 0.65 0.52 0.41 0.36 0.33 0.32 0.30 0.30
0.23 0.24 0.28 0.40 0.49 0.57 0.64 0.72 0.69 0.73 0.75 0.80 0.88 0.94 0.93 0.95 1.02 1.07 1.10 1.12 1.17 1.13 1.04 1.01 0.94 0.88 0.90 0.86 0.64 0.53 0.47 0.52 0.68 0.84 0.86 0.73 0.58 0.49 0.41 0.36 0.34 0.33 0.32
0.19 0.21 0.25 0.34 0.42 0.50 0.56 0.68 0.76 0.84 0.88 0.94 0.99 1.04 1.09 1.06 1.06 1.14 1.18 1.20 1.24 1.28 1.22 1.14 1.07 1.03 0.99 0.93 0.80 0.67 0.60 0.63 0.72 0.83 0.87 0.77 0.70 0.61 0.57 0.49 0.41 0.39 0.42
0.18 0.21 0.27 0.33 0.40 0.47 0.54 0.62 0.69 0.80 0.87 0.93 0.97 0.99 1.04 1.08 1.12 1.15 1.18 1.14 1.17 1.15 1.13 1.09 1.08 1.09 1.06 0.91 0.82 0.78 0.73 0.79 0.87 0.93 1.04 0.97 0.92 0.84 0.76 0.69 0.65 0.63 0.62
0.25 0.28 0.31 0.35 0.39 0.47 0.58 0.65 0.74 0.86 0.97 1.03 1.05 1.00 0.98 1.04 1.09 1.14 1.13 1.02 0.95 0.91 0.88 0.88 0.89 0.89 0.84 0.77 0.69 0.68 0.68 0.73 0.82 0.87 1.02 1.05 1.02 0.99 0.93 0.83 0.77 0.74 0.71

GEFSMW_prec_meanprecacc_138.txt.gz
Total_Precipitation_Accumulation
1.64 1.96 2.21 2.70 3.23 3.53 3.86 4.03 3.96 3.78 3.50 3.12 2.80 2.53 2.33 2.20 2.00 1.86 1.76 1.72 1.69 1.76 2.02 1.89 1.96 1.99 1.95 1.94 1.99 1.96 1.81 1.52 1.73 1.77 1.35 0.94 0.75 0.71 0.53 0.51 0.52 0.50 0.54
1.56 2.01 2.17 2.33 2.74 3.17 3.59 3.83 3.99 3.83 3.39 2.93 2.64 2.49 2.43 2.12 1.84 1.80 1.76 1.73 1.82 1.80 1.85 1.87 1.85 1.87 1.87 1.77 1.75 1.81 1.62 1.36 1.52 1.60 1.51 0.98 0.75 0.62 0.48 0.54 0.60 0.62 0.69
1.83 2.08 2.13 2.17 2.39 2.74 2.99 3.08 3.19 3.11 2.80 2.62 2.52 2.44 2.40 2.09 1.95 1.99 1.99 1.95 1.98 1.93 1.91 1.84 1.72 1.58 1.52 1.45 1.49 1.57 1.53 1.37 1.35 1.54 1.70 1.32 0.94 0.83 0.65 0.64 0.65 0.74 0.82
1.51 1.58 1.79 2.00 2.18 2.37 2.60 2.73 2.70 2.57 2.32 2.23 2.24 2.21 2.10 2.03 2.16 2.37 2.26 2.03 1.85 1.71 1.54 1.40 1.38 1.33 1.30 1.21 1.14 1.25 1.29 1.20 1.15 1.27 1.41 1.48 1.43 1.31 0.85 0.62 0.59 0.70 0.80
1.19 1.21 1.38 1.61 1.68 1.93 2.12 2.27 2.34 2.33 2.16 2.06 2.02 2.06 1.99 1.96 1.94 1.90 1.83 1.69 1.52 1.31 1.12 1.03 1.03 1.03 1.02 0.96 0.92 0.94 0.95 0.97 0.98 1.11 1.27 1.36 1.41 1.40 1.26 0.89 0.83 0.84 0.77
1.00 1.06 1.16 1.31 1.40 1.48 1.52 1.56 1.67 1.81 1.80 1.74 1.73 1.72 1.64 1.55 1.45 1.30 1.24 1.16 1.05 0.88 0.75 0.70 0.75 0.81 0.87 0.85 0.82 0.82 0.81 0.87 0.98 1.01 1.11 1.24 1.23 1.24 1.31 1.10 0.98 0.93 0.82
0.73 0.87 0.92 0.97 1.02 1.05 1.06 1.11 1.27 1.46 1.41 1.29 1.29 1.32 1.27 1.20 1.11 1.04 0.96 0.89 0.80 0.69 0.63 0.60 0.63 0.71 0.77 0.73 0.69 0.70 0.78 0.90 0.99 0.98 1.04 1.16 1.19 1.22 1.32 1.27 1.16 1.08 1.03
0.54 0.64 0.77 0.87 0.85 0.81 0.83 0.85 1.01 1.11 1.03 0.95 0.97 0.99 0.97 0.95 0.88 0.85 0.72 0.67 0.66 0.67 0.68 0.61 0.60 0.60 0.63 0.63 0.66 0.66 0.73 0.85 0.93 0.89 1.03 1.13 1.19 1.32 1.44 1.47 1.43 1.28 1.16
0.51 0.51 0.55 0.64 0.65 0.61 0.59 0.64 0.80 0.89 0.89 0.87 0.85 0.82 0.79 0.76 0.68 0.62 0.57 0.52 0.54 0.57 0.65 0.64 0.63 0.63 0.66 0.69 0.76 0.80 0.88 1.03 1.09 1.13 1.24 1.27 1.23 1.27 1.35 1.41 1.45 1.48 1.32
0.29 0.27 0.29 0.31 0.33 0.38 0.46 0.54 0.60 0.64 0.66 0.66 0.70 0.70 0.67 0.59 0.52 0.47 0.43 0.42 0.42 0.47 0.56 0.62 0.63 0.65 0.64 0.68 0.79 0.97 1.13 1.23 1.27 1.30 1.37 1.42 1.36 1.37 1.43 1.42 1.47 1.56 1.47
0.17 0.21 0.22 0.26 0.29 0.33 0.43 0.52 0.55 0.58 0.61 0.59 0.60 0.58 0.55 0.52 0.46 0.40 0.37 0.37 0.40 0.43 0.47 0.51 0.56 0.58 0.61 0.65 0.74 0.86 1.05 1.16 1.18 1.20 1.26 1.27 1.27 1.25 1.24 1.30 1.42 1.55 1.54
0.20 0.22 0.22 0.29 0.34 0.33 0.34 0.41 0.46 0.52 0.63 0.73 0.81 0.81 0.72 0.63 0.53 0.42 0.38 0.36 0.38 0.42 0.44 0.44 0.45 0.45 0.49 0.57 0.68 0.79 0.90 0.98 1.01 1.00 1.00 0.97 0.96 0.99 0.99 1.06 1.14 1.24 1.41
0.17 0.17 0.20 0.25 0.30 0.34 0.36 0.40 0.44 0.48 0.59 0.76 1.00 1.11 1.02 0.87 0.69 0.50 0.36 0.31 0.31 0.34 0.35 0.37 0.40 0.46 0.58 0.68 0.74 0.77 0.80 0.81 0.84 0.91 0.94 0.88 0.84 0.86 0.88 0.91 0.90 0.94 1.12
0.13 0.12 0.13 0.20 0.25 0.33 0.41 0.45 0.49 0.49 0.56 0.69 0.85 0.91 0.84 0.75 0.63 0.45 0.31 0.25 0.26 0.30 0.33 0.38 0.43 0.51 0.58 0.68 0.74 0.74 0.72 0.67 0.63 0.66 0.72 0.74 0.72 0.72 0.77 0.81 0.82 0.84 0.98
0.13 0.11 0.14 0.20 0.23 0.28 0.36 0.37 0.33 0.28 0.33 0.46 0.52 0.57 0.52 0.43 0.39 0.35 0.30 0.27 0.28 0.30 0.36 0.41 0.46 0.49 0.49 0.50 0.47 0.47 0.47 0.45 0.42 0.40 0.43 0.49 0.54 0.57 0.60 0.62 0.74 0.83 0.88
0.11 0.11 0.15 0.20 0.21 0.20 0.21 0.18 0.17 0.19 0.23 0.31 0.37 0.44 0.46 0.40 0.33 0.29 0.27 0.27 0.29 0.34 0.38 0.42 0.46 0.45 0.38 0.42 0.33 0.24 0.23 0.28 0.32 0.36 0.38 0.39 0.40 0.44 0.45 0.46 0.53 0.67 0.77
0.11 0.09 0.12 0.14 0.11 0.11 0.12 0.13 0.16 0.21 0.28 0.34 0.39 0.47 0.49 0.45 0.39 0.32 0.32 0.32 0.34 0.35 0.36 0.35 0.34 0.35 0.39 0.36 0.29 0.19 0.17 0.21 0.25 0.30 0.34 0.30 0.30 0.35 0.37 0.38 0.37 0.40 0.49
0.13 0.08 0.09 0.10 0.10 0.10 0.12 0.17 0.23 0.31 0.35 0.41 0.47 0.55 0.59 0.53 0.47 0.46 0.47 0.48 0.46 0.44 0.42 0.38 0.34 0.38 0.38 0.33 0.27 0.22 0.20 0.24 0.27 0.30 0.33 0.33 0.29 0.29 0.34 0.39 0.38 0.36 0.35
0.15 0.14 0.11 0.13 0.15 0.15 0.16 0.23 0.31 0.38 0.46 0.51 0.59 0.65 0.71 0.68 0.64 0.65 0.65 0.67 0.64 0.56 0.51 0.46 0.46 0.47 0.47 0.39 0.31 0.26 0.26 0.32 0.34 0.35 0.34 0.33 0.32 0.30 0.27 0.33 0.39 0.41 0.40
0.16 0.15 0.14 0.16 0.18 0.20 0.27 0.36 0.40 0.44 0.52 0.59 0.71 0.82 0.87 0.89 0.88 0.90 0.89 0.84 0.79 0.69 0.62 0.57 0.58 0.61 0.66 0.65 0.50 0.43 0.42 0.45 0.46 0.52 0.48 0.39 0.33 0.31 0.28 0.32 0.38 0.40 0.41
0.22 0.18 0.17 0.21 0.27 0.33 0.42 0.51 0.58 0.65 0.66 0.70 0.78 0.90 0.98 1.03 1.08 1.16 1.12 1.04 0.97 0.93 0.89 0.81 0.79 0.82 0.86 0.87 0.68 0.56 0.55 0.59 0.65 0.67 0.58 0.52 0.42 0.36 0.35 0.36 0.40 0.39 0.42
0.28 0.27 0.27 0.33 0.37 0.44 0.53 0.62 0.68 0.67 0.72 0.77 0.84 0.89 0.94 0.93 0.97 1.15 1.20 1.18 1.16 1.08 1.03 0.99 0.87 0.86 0.89 0.84 0.71 0.56 0.50 0.60 0.78 0.85 0.78 0.70 0.56 0.44 0.39 0.36 0.35 0.33 0.32
0.26 0.26 0.31 0.42 0.51 0.61 0.69 0.78 0.75 0.78 0.79 0.84 0.93 0.99 1.00 1.03 1.10 1.16 1.19 1.22 1.26 1.22 1.11 1.08 1.00 0.94 0.95 0.91 0.69 0.56 0.51 0.55 0.71 0.86 0.89 0.76 0.61 0.53 0.45 0.38 0.37 0.35 0.34
0.22 0.23 0.27 0.36 0.45 0.55 0.64 0.76 0.84 0.89 0.92 0.98 1.03 1.10 1.16 1.14 1.14 1.24 1.29 1.31 1.35 1.39 1.33 1.25 1.17 1.12 1.08 1.01 0.86 0.72 0.65 0.68 0.77 0.88 0.93 0.82 0.75 0.65 0.60 0.52 0.44 0.41 0.45
0.22 0.23 0.29 0.35 0.42 0.50 0.58 0.66 0.74 0.84 0.91 0.97 1.01 1.04 1.08 1.13 1.17 1.20 1.25 1.21 1.25 1.23 1.21 1.17 1.17 1.18 1.15 1.00 0.92 0.86 0.79 0.85 0.93 1.00 1.10 1.02 0.97 0.90 0.81 0.74 0.70 0.69 0.69
0.29 0.31 0.33 0.36 0.41 0.49 0.61 0.68 0.77 0.90 1.01 1.08 1.09 1.04 1.01 1.07 1.12 1.17 1.17 1.08 1.00 0.97 0.93 0.93 0.94 0.95 0.90 0.83 0.75 0.73 0.73 0.78 0.88 0.94 1.08 1.12 1.09 1.06 1.01 0.91 0.84 0.81 0.77

GEFSMW_prec_meanprecacc_144.txt.gz
Total_Precipitation_Accumulation
1.66 2.01 2.26 2.74 3.29 3.60 4.00 4.17 4.12 3.97 3.66 3.26 2.92 2.65 2.44 2.30 2.09 1.94 1.83 1.78 1.74 1.82 2.08 1.96 2.03 2.05 1.99 2.00 2.05 2.03 1.86 1.56 1.76 1.79 1.38 0.97 0.76 0.73 0.54 0.52 0.52 0.51 0.54
1.58 2.07 2.24 2.39 2.81 3.25 3.73 3.99 4.13 3.97 3.53 3.05 2.75 2.60 2.54 2.22 1.93 1.89 1.86 1.80 1.88 1.86 1.89 1.93 1.91 1.92 1.94 1.85 1.82 1.88 1.68 1.40 1.55 1.63 1.55 1.02 0.78 0.64 0.49 0.55 0.60 0.62 0.69
1.85 2.11 2.21 2.29 2.46 2.83 3.10 3.22 3.32 3.23 2.93 2.75 2.66 2.59 2.56 2.21 2.07 2.12 2.11 2.03 2.04 1.98 1.96 1.89 1.77 1.63 1.56 1.51 1.55 1.62 1.58 1.42 1.39 1.57 1.74 1.37 0.98 0.86 0.67 0.65 0.66 0.75 0.83
1.53 1.60 1.84 2.07 2.24 2.44 2.70 2.88 2.85 2.71 2.47 2.39 2.38 2.33 2.19 2.11 2.24 2.46 2.35 2.11 1.92 1.77 1.59 1.44 1.41 1.37 1.35 1.27 1.20 1.29 1.32 1.24 1.19 1.31 1.43 1.51 1.47 1.36 0.89 0.64 0.60 0.70 0.81
1.20 1.23 1.41 1.66 1.75 2.00 2.21 2.40 2.49 2.48 2.33 2.23 2.18 2.21 2.12 2.09 2.07 2.02 1.94 1.79 1.60 1.38 1.16 1.06 1.07 1.07 1.07 1.02 0.98 0.99 0.98 1.00 1.02 1.14 1.28 1.38 1.43 1.43 1.29 0.91 0.84 0.85 0.78
1.01 1.08 1.19 1.36 1.46 1.55 1.61 1.66 1.81 1.97 1.96 1.90 1.90 1.89 1.79 1.70 1.60 1.42 1.34 1.24 1.12 0.95 0.80 0.72 0.78 0.85 0.92 0.90 0.86 0.86 0.84 0.90 1.01 1.03 1.13 1.26 1.25 1.25 1.33 1.12 1.01 0.95 0.83
0.74 0.89 0.95 1.02 1.07 1.11 1.13 1.21 1.39 1.60 1.54 1.43 1.46 1.48 1.43 1.36 1.25 1.15 1.05 0.98 0.86 0.73 0.67 0.64 0.67 0.74 0.82 0.78 0.73 0.73 0.81 0.93 1.01 0.99 1.05 1.17 1.20 1.23 1.33 1.29 1.18 1.10 1.04
0.54 0.65 0.79 0.91 0.91 0.86 0.89 0.94 1.11 1.23 1.17 1.07 1.12 1.17 1.13 1.10 1.01 0.97 0.82 0.75 0.72 0.72 0.73 0.66 0.64 0.64 0.67 0.66 0.70 0.69 0.75 0.87 0.95 0.90 1.03 1.13 1.19 1.33 1.46 1.48 1.45 1.31 1.18
0.51 0.51 0.56 0.66 0.69 0.65 0.65 0.70 0.89 1.01 1.03 0.99 1.00 1.00 0.95 0.91 0.81 0.73 0.65 0.58 0.62 0.64 0.71 0.67 0.66 0.67 0.70 0.73 0.80 0.84 0.92 1.06 1.11 1.15 1.25 1.28 1.24 1.28 1.36 1.42 1.47 1.50 1.33
0.29 0.28 0.30 0.34 0.38 0.43 0.52 0.61 0.68 0.75 0.77 0.77 0.80 0.81 0.82 0.75 0.66 0.57 0.50 0.49 0.50 0.55 0.64 0.67 0.67 0.68 0.67 0.71 0.82 1.00 1.16 1.26 1.30 1.32 1.40 1.44 1.37 1.38 1.43 1.43 1.48 1.56 1.48
0.17 0.21 0.25 0.31 0.36 0.40 0.47 0.58 0.63 0.69 0.72 0.69 0.68 0.69 0.67 0.66 0.59 0.50 0.45 0.44 0.48 0.52 0.55 0.56 0.59 0.62 0.64 0.68 0.77 0.88 1.07 1.18 1.20 1.22 1.28 1.29 1.28 1.27 1.25 1.31 1.43 1.55 1.54
0.20 0.22 0.24 0.33 0.40 0.45 0.44 0.46 0.52 0.59 0.71 0.82 0.90 0.92 0.84 0.75 0.65 0.51 0.44 0.44 0.45 0.48 0.49 0.48 0.48 0.48 0.52 0.60 0.69 0.80 0.91 1.00 1.02 1.02 1.03 0.99 0.98 1.01 1.00 1.08 1.15 1.25 1.42
0.17 0.18 0.21 0.27 0.33 0.41 0.46 0.45 0.49 0.53 0.64 0.83 1.09 1.20 1.11 0.96 0.77 0.57 0.42 0.38 0.37 0.40 0.41 0.41 0.43 0.49 0.62 0.71 0.76 0.79 0.81 0.83 0.86 0.93 0.98 0.92 0.87 0.87 0.90 0.93 0.91 0.96 1.13
0.13 0.13 0.16 0.25 0.30 0.37 0.46 0.49 0.53 0.53 0.60 0.74 0.91 0.98 0.89 0.79 0.68 0.50 0.36 0.30 0.31 0.35 0.38 0.42 0.47 0.54 0.62 0.71 0.76 0.77 0.75 0.70 0.65 0.69 0.75 0.76 0.74 0.73 0.80 0.83 0.84 0.87 1.00
0.13 0.13 0.17 0.24 0.29 0.32 0.40 0.41 0.37 0.33 0.38 0.50 0.56 0.62 0.56 0.47 0.43 0.40 0.36 0.33 0.33 0.35 0.40 0.45 0.50 0.52 0.53 0.53 0.51 0.51 0.50 0.48 0.45 0.43 0.46 0.52 0.57 0.59 0.62 0.64 0.76 0.84 0.90
0.12 0.12 0.18 0.23 0.24 0.24 0.25 0.22 0.23 0.25 0.29 0.36 0.41 0.49 0.51 0.44 0.37 0.34 0.33 0.32 0.33 0.39 0.44 0.47 0.52 0.51 0.41 0.45 0.37 0.28 0.28 0.34 0.37 0.41 0.43 0.43 0.43 0.45 0.46 0.46 0.54 0.68 0.77
0.12 0.10 0.14 0.17 0.16 0.15 0.16 0.18 0.21 0.28 0.35 0.42 0.48 0.54 0.55 0.51 0.44 0.38 0.39 0.39 0.41 0.44 0.46 0.45 0.44 0.44 0.47 0.43 0.34 0.23 0.21 0.26 0.29 0.35 0.39 0.33 0.31 0.37 0.38 0.40 0.39 0.41 0.50
0.14 0.10 0.11 0.12 0.14 0.15 0.17 0.21 0.28 0.37 0.41 0.49 0.57 0.66 0.69 0.61 0.56 0.56 0.58 0.59 0.59 0.57 0.55 0.50 0.47 0.50 0.48 0.42 0.32 0.25 0.22 0.27 0.30 0.33 0.36 0.37 0.34 0.33 0.39 0.44 0.42 0.39 0.38
0.16 0.15 0.12 0.15 0.17 0.17 0.20 0.30 0.40 0.47 0.55 0.60 0.69 0.76 0.81 0.80 0.78 0.78 0.77 0.79 0.76 0.67 0.62 0.57 0.59 0.59 0.58 0.50 0.36 0.30 0.29 0.35 0.37 0.38 0.38 0.38 0.37 0.36 0.33 0.39 0.45 0.47 0.47
0.18 0.18 0.16 0.19 0.22 0.25 0.32 0.43 0.50 0.58 0.67 0.74 0.88 1.00 1.08 1.09 1.08 1.09 1.06 0.99 0.94 0.83 0.77 0.73 0.75 0.77 0.82 0.81 0.61 0.51 0.48 0.50 0.50 0.57 0.54 0.44 0.39 0.37 0.35 0.37 0.44 0.45 0.47
0.24 0.20 0.20 0.25 0.32 0.39 0.48 0.60 0.70 0.80 0.78 0.83 0.96 1.14 1.22 1.27 1.30 1.36 1.31 1.24 1.16 1.11 1.06 0.99 0.97 1.00 1.04 1.06 0.83 0.69 0.63 0.66 0.72 0.75 0.67 0.62 0.51 0.44 0.43 0.42 0.45 0.43 0.46
0.31 0.29 0.29 0.36 0.42 0.52 0.60 0.70 0.78 0.79 0.82 0.88 0.98 1.08 1.15 1.15 1.20 1.37 1.41 1.41 1.38 1.30 1.25 1.21 1.08 1.05 1.06 0.99 0.84 0.67 0.59 0.69 0.86 0.94 0.88 0.80 0.65 0.50 0.44 0.39 0.37 0.35 0.34
0.29 0.29 0.33 0.45 0.55 0.66 0.76 0.86 0.83 0.87 0.89 0.94 1.06 1.14 1.17 1.21 1.29 1.34 1.36 1.39 1.43 1.42 1.33 1.30 1.20 1.11 1.13 1.08 0.83 0.67 0.61 0.64 0.78 0.93 0.95 0.82 0.66 0.55 0.47 0.41 0.39 0.37 0.36
0.25 0.27 0.32 0.41 0.50 0.59 0.68 0.82 0.92 0.99 1.03 1.07 1.13 1.21 1.28 1.27 1.28 1.38 1.45 1.48 1.53 1.57 1.51 1.44 1.37 1.29 1.23 1.14 0.99 0.83 0.75 0.77 0.85 0.95 0.99 0.88 0.80 0.69 0.65 0.57 0.49 0.46 0.49
0.26 0.28 0.34 0.41 0.47 0.54 0.62 0.71 0.80 0.92 1.01 1.07 1.10 1.13 1.19 1.25 1.32 1.38 1.43 1.39 1.44 1.41 1.38 1.33 1.32 1.32 1.27 1.11 1.02 0.95 0.87 0.92 1.00 1.05 1.14 1.07 1.01 0.94 0.86 0.80 0.76 0.75 0.75
0.33 0.36 0.38 0.40 0.44 0.52 0.63 0.72 0.82 0.96 1.09 1.18 1.18 1.12 1.10 1.17 1.23 1.29 1.29 1.21 1.12 1.08 1.03 1.02 1.02 1.02 0.97 0.89 0.81 0.79 0.79 0.83 0.93 0.98 1.13 1.19 1.17 1.15 1.10 1.00 0.93 0.90 0.87

GEFSMW_prec_meanprecacc_150.txt.gz
Total_Precipitation_Accumulation
1.72 2.07 2.36 2.87 3.43 3.75 4.14 4.28 4.23 4.08 3.76 3.35 3.02 2.76 2.54 2.39 2.17 2.01 1.91 1.83 1.77 1.85 2.11 1.99 2.05 2.06 2.01 2.02 2.07 2.06 1.90 1.59 1.79 1.82 1.41 1.02 0.81 0.77 0.57 0.53 0.54 0.53 0.55
1.67 2.13 2.34 2.54 2.96 3.38 3.84 4.11 4.24 4.09 3.65 3.14 2.82 2.68 2.65 2.35 2.07 2.02 1.99 1.86 1.92 1.89 1.91 1.95 1.93 1.94 1.96 1.87 1.83 1.89 1.71 1.42 1.56 1.65 1.57 1.06 0.81 0.66 0.51 0.56 0.62 0.65 0.70
1.98 2.18 2.28 2.40 2.60 2.96 3.21 3.33 3.45 3.38 3.10 2.91 2.79 2.70 2.67 2.36 2.24 2.26 2.22 2.09 2.08 2.02 1.99 1.91 1.79 1.65 1.58 1.52 1.56 1.63 1.60 1.43 1.40 1.58 1.75 1.38 1.00 0.87 0.67 0.65 0.67 0.76 0.85
1.60 1.67 1.91 2.17 2.33 2.54 2.82 3.02 3.05 2.91 2.66 2.56 2.51 2.41 2.25 2.18 2.32 2.52 2.42 2.16 1.97 1.82 1.62 1.47 1.46 1.42 1.37 1.29 1.20 1.29 1.33 1.25 1.20 1.31 1.44 1.51 1.48 1.37 0.90 0.64 0.61 0.72 0.82
1.28 1.30 1.49 1.77 1.86 2.11 2.34 2.56 2.73 2.73 2.53 2.40 2.32 2.31 2.19 2.15 2.16 2.10 2.01 1.85 1.65 1.43 1.20 1.11 1.12 1.11 1.09 1.05 1.00 1.00 0.99 1.01 1.02 1.14 1.29 1.38 1.44 1.43 1.30 0.92 0.85 0.86 0.79
1.09 1.18 1.30 1.49 1.57 1.67 1.75 1.83 2.02 2.18 2.19 2.12 2.10 2.05 1.90 1.80 1.70 1.51 1.41 1.31 1.20 1.02 0.85 0.77 0.82 0.88 0.94 0.92 0.88 0.88 0.86 0.91 1.02 1.04 1.13 1.27 1.25 1.25 1.34 1.13 1.01 0.96 0.84
0.81 0.97 1.05 1.11 1.17 1.21 1.25 1.33 1.54 1.78 1.76 1.66 1.67 1.70 1.59 1.48 1.38 1.27 1.13 1.04 0.93 0.78 0.72 0.68 0.72 0.77 0.84 0.79 0.75 0.74 0.82 0.94 1.03 1.00 1.05 1.17 1.20 1.23 1.34 1.29 1.19 1.11 1.05
0.59 0.70 0.86 0.98 0.97 0.94 0.99 1.04 1.24 1.39 1.36 1.28 1.34 1.38 1.32 1.27 1.16 1.12 0.95 0.84 0.78 0.77 0.77 0.70 0.68 0.67 0.69 0.67 0.72 0.71 0.76 0.88 0.96 0.91 1.04 1.14 1.20 1.34 1.47 1.49 1.46 1.32 1.20
0.56 0.56 0.62 0.75 0.77 0.74 0.77 0.83 1.03 1.17 1.18 1.15 1.19 1.21 1.15 1.08 0.98 0.87 0.78 0.69 0.70 0.71 0.78 0.74 0.71 0.70 0.72 0.74 0.81 0.85 0.93 1.07 1.12 1.16 1.26 1.28 1.24 1.29 1.37 1.43 1.47 1.51 1.35
0.36 0.33 0.35 0.40 0.49 0.59 0.68 0.77 0.84 0.90 0.93 0.93 0.96 0.99 0.98 0.91 0.83 0.73 0.63 0.59 0.58 0.62 0.73 0.75 0.73 0.72 0.70 0.74 0.84 1.01 1.17 1.28 1.31 1.33 1.40 1.44 1.38 1.38 1.44 1.43 1.49 1.57 1.48
0.25 0.27 0.29 0.35 0.42 0.48 0.59 0.70 0.74 0.79 0.83 0.81 0.82 0.85 0.84 0.85 0.78 0.66 0.56 0.53 0.55 0.57 0.61 0.63 0.65 0.67 0.67 0.71 0.78 0.89 1.08 1.20 1.22 1.23 1.28 1.29 1.28 1.27 1.25 1.32 1.44 1.56 1.55
0.33 0.30 0.30 0.37 0.44 0.51 0.55 0.58 0.61 0.66 0.77 0.89 1.01 1.05 0.97 0.89 0.79 0.66 0.57 0.53 0.53 0.54 0.56 0.55 0.54 0.53 0.56 0.64 0.72 0.82 0.92 1.01 1.03 1.02 1.04 1.00 0.99 1.02 1.01 1.08 1.16 1.26 1.43
0.38 0.32 0.31 0.34 0.38 0.47 0.53 0.51 0.53 0.58 0.69 0.89 1.17 1.28 1.18 1.04 0.87 0.67 0.52 0.46 0.46 0.48 0.48 0.48 0.49 0.53 0.65 0.74 0.79 0.81 0.83 0.84 0.87 0.95 1.01 0.94 0.89 0.88 0.91 0.94 0.92 0.97 1.14
0.39 0.38 0.33 0.39 0.42 0.44 0.51 0.54 0.56 0.57 0.65 0.79 0.97 1.06 0.95 0.84 0.74 0.57 0.43 0.36 0.37 0.41 0.44 0.47 0.52 0.59 0.66 0.74 0.79 0.80 0.77 0.72 0.68 0.73 0.79 0.80 0.77 0.76 0.82 0.85 0.86 0.90 1.02
0.31 0.30 0.28 0.34 0.41 0.41 0.47 0.46 0.42 0.37 0.44 0.57 0.63 0.71 0.65 0.54 0.50 0.46 0.41 0.39 0.39 0.40 0.45 0.50 0.54 0.57 0.59 0.58 0.55 0.56 0.56 0.54 0.51 0.48 0.51 0.57 0.62 0.64 0.66 0.68 0.81 0.89 0.94
0.23 0.21 0.26 0.30 0.29 0.28 0.29 0.25 0.25 0.29 0.35 0.42 0.49 0.58 0.65 0.56 0.46 0.42 0.40 0.38 0.40 0.45 0.50 0.54 0.58 0.58 0.47 0.52 0.45 0.37 0.37 0.42 0.45 0.48 0.49 0.48 0.48 0.50 0.50 0.50 0.57 0.70 0.80
0.21 0.17 0.22 0.26 0.21 0.20 0.20 0.21 0.24 0.32 0.40 0.49 0.57 0.65 0.69 0.66 0.58 0.48 0.48 0.47 0.50 0.54 0.55 0.54 0.53 0.53 0.56 0.55 0.45 0.32 0.30 0.34 0.37 0.42 0.44 0.38 0.36 0.42 0.43 0.45 0.44 0.45 0.53
0.21 0.16 0.17 0.19 0.21 0.20 0.22 0.26 0.32 0.42 0.49 0.57 0.67 0.75 0.79 0.75 0.72 0.70 0.71 0.70 0.70 0.70 0.68 0.64 0.60 0.63 0.60 0.55 0.42 0.34 0.30 0.33 0.36 0.39 0.41 0.41 0.37 0.36 0.43 0.49 0.47 0.43 0.42
0.22 0.20 0.18 0.20 0.23 0.24 0.27 0.37 0.47 0.55 0.65 0.72 0.79 0.85 0.93 0.94 0.95 0.97 0.95 0.96 0.94 0.84 0.76 0.70 0.71 0.70 0.69 0.64 0.49 0.42 0.38 0.42 0.43 0.45 0.43 0.43 0.40 0.40 0.38 0.44 0.49 0.51 0.50
0.25 0.24 0.22 0.25 0.30 0.36 0.41 0.53 0.62 0.69 0.78 0.86 1.00 1.12 1.23 1.24 1.23 1.27 1.25 1.19 1.14 1.04 1.01 0.93 0.91 0.93 0.99 1.00 0.79 0.68 0.62 0.63 0.61 0.66 0.61 0.51 0.45 0.44 0.43 0.45 0.51 0.51 0.52
0.30 0.27 0.26 0.32 0.41 0.49 0.60 0.74 0.87 0.97 0.93 0.98 1.13 1.31 1.41 1.47 1.49 1.54 1.54 1.47 1.42 1.39 1.33 1.22 1.17 1.19 1.21 1.23 1.01 0.88 0.81 0.83 0.88 0.88 0.80 0.74 0.63 0.54 0.53 0.51 0.53 0.50 0.51
0.36 0.35 0.35 0.42 0.51 0.63 0.73 0.85 0.92 0.93 0.96 1.03 1.16 1.28 1.38 1.40 1.47 1.62 1.65 1.65 1.63 1.56 1.50 1.44 1.30 1.27 1.25 1.17 1.01 0.83 0.74 0.83 0.99 1.06 1.00 0.91 0.76 0.59 0.52 0.47 0.44 0.41 0.40
0.35 0.36 0.40 0.53 0.65 0.79 0.88 0.96 0.93 1.00 1.02 1.08 1.22 1.36 1.43 1.47 1.53 1.56 1.55 1.58 1.61 1.58 1.50 1.48 1.40 1.34 1.35 1.29 1.03 0.86 0.77 0.79 0.91 1.05 1.06 0.91 0.74 0.61 0.51 0.44 0.42 0.40 0.38
0.29 0.31 0.36 0.47 0.58 0.69 0.78 0.90 0.99 1.07 1.12 1.18 1.25 1.36 1.47 1.49 1.49 1.58 1.65 1.69 1.76 1.81 1.73 1.64 1.56 1.50 1.45 1.36 1.20 1.02 0.92 0.93 0.99 1.06 1.07 0.95 0.85 0.74 0.68 0.60 0.52 0.49 0.52
0.29 0.31 0.37 0.44 0.51 0.58 0.66 0.74 0.83 0.97 1.07 1.14 1.18 1.24 1.31 1.40 1.48 1.54 1.60 1.57 1.61 1.58 1.54 1.49 1.49 1.50 1.47 1.32 1.23 1.14 1.03 1.06 1.13 1.16 1.23 1.15 1.09 1.00 0.91 0.84 0.79 0.78 0.79
0.35 0.38 0.40 0.42 0.47 0.54 0.66 0.74 0.83 0.98 1.13 1.23 1.25 1.19 1.16 1.23 1.29 1.36 1.35 1.28 1.21 1.18 1.12 1.11 1.11 1.10 1.05 0.97 0.88 0.86 0.86 0.90 1.00 1.06 1.21 1.27 1.25 1.22 1.15 1.05 0.96 0.93 0.90

GEFSMW_prec_meanprecacc_156.txt.gz
Total_Precipitation_Accumulation
1.77 2.14 2.44 2.99 3.57 3.88 4.26 4.42 4.39 4.23 3.93 3.52 3.15 2.86 2.63 2.48 2.24 2.09 1.97 1.88 1.81 1.88 2.15 2.01 2.07 2.08 2.04 2.05 2.10 2.09 1.92 1.61 1.82 1.84 1.42 1.03 0.84 0.79 0.59 0.54 0.56 0.55 0.57
1.70 2.18 2.41 2.62 3.10 3.59 4.01 4.25 4.38 4.24 3.82 3.35 3.04 2.85 2.78 2.46 2.16 2.11 2.07 1.93 1.97 1.94 1.96 1.98 1.94 1.96 1.98 1.90 1.86 1.91 1.73 1.45 1.59 1.67 1.59 1.07 0.83 0.68 0.52 0.57 0.64 0.68 0.73
2.00 2.21 2.33 2.46 2.69 3.12 3.40 3.46 3.58 3.53 3.28 3.17 3.08 2.93 2.86 2.51 2.34 2.34 2.30 2.15 2.14 2.08 2.04 1.95 1.83 1.68 1.60 1.55 1.58 1.65 1.62 1.45 1.42 1.60 1.77 1.39 1.00 0.88 0.68 0.66 0.68 0.78 0.88
1.62 1.70 1.95 2.23 2.43 2.67 2.97 3.15 3.19 3.10 2.91 2.87 2.79 2.63 2.40 2.29 2.39 2.58 2.49 2.23 2.03 1.86 1.66 1.51 1.50 1.46 1.41 1.33 1.24 1.32 1.35 1.27 1.21 1.32 1.44 1.51 1.48 1.37 0.90 0.64 0.61 0.72 0.83
1.32 1.34 1.54 1.85 1.96 2.23 2.47 2.71 2.91 2.95 2.79 2.69 2.59 2.55 2.39 2.32 2.31 2.23 2.11 1.92 1.71 1.48 1.23 1.15 1.17 1.15 1.13 1.08 1.03 1.03 1.01 1.02 1.03 1.15 1.30 1.39 1.44 1.44 1.30 0.93 0.86 0.86 0.79
1.14 1.25 1.39 1.63 1.72 1.81 1.88 2.01 2.22 2.40 2.43 2.37 2.33 2.28 2.14 2.04 1.90 1.66 1.51 1.39 1.27 1.08 0.89 0.81 0.85 0.91 0.97 0.94 0.90 0.90 0.88 0.93 1.03 1.05 1.14 1.28 1.26 1.25 1.34 1.13 1.02 0.97 0.85
0.85 1.06 1.17 1.23 1.33 1.40 1.43 1.54 1.76 2.02 2.04 1.94 1.92 1.92 1.80 1.70 1.56 1.42 1.25 1.12 1.00 0.83 0.76 0.71 0.74 0.79 0.86 0.81 0.78 0.77 0.85 0.97 1.05 1.02 1.07 1.18 1.21 1.24 1.34 1.30 1.19 1.12 1.05
0.63 0.75 0.94 1.09 1.11 1.12 1.19 1.31 1.54 1.69 1.68 1.56 1.59 1.64 1.54 1.49 1.37 1.31 1.09 0.93 0.85 0.81 0.82 0.75 0.71 0.69 0.70 0.69 0.73 0.72 0.77 0.89 0.98 0.93 1.05 1.15 1.20 1.34 1.47 1.50 1.47 1.32 1.20
0.59 0.59 0.67 0.81 0.87 0.88 0.94 1.03 1.28 1.45 1.47 1.41 1.44 1.47 1.43 1.32 1.17 1.07 0.95 0.81 0.80 0.79 0.86 0.81 0.76 0.73 0.74 0.76 0.83 0.87 0.95 1.08 1.13 1.17 1.27 1.29 1.25 1.29 1.37 1.43 1.48 1.52 1.35
0.38 0.36 0.39 0.46 0.55 0.66 0.79 0.89 0.99 1.11 1.17 1.15 1.15 1.18 1.23 1.14 1.03 0.96 0.83 0.71 0.67 0.72 0.83 0.85 0.80 0.76 0.72 0.76 0.86 1.04 1.20 1.30 1.33 1.35 1.42 1.45 1.39 1.39 1.45 1.44 1.49 1.58 1.49
0.28 0.30 0.34 0.41 0.49 0.54 0.66 0.77 0.83 0.92 1.00 0.99 1.00 1.01 1.00 1.02 0.97 0.87 0.74 0.68 0.67 0.66 0.69 0.72 0.74 0.72 0.71 0.73 0.81 0.92 1.11 1.23 1.25 1.25 1.30 1.31 1.30 1.28 1.26 1.33 1.44 1.57 1.56
0.36 0.33 0.34 0.44 0.50 0.55 0.60 0.63 0.67 0.77 0.90 1.02 1.16 1.19 1.11 1.04 0.94 0.82 0.72 0.68 0.65 0.63 0.63 0.64 0.62 0.60 0.61 0.67 0.75 0.85 0.96 1.04 1.06 1.05 1.06 1.01 1.00 1.03 1.02 1.09 1.17 1.26 1.44
0.39 0.35 0.36 0.40 0.43 0.51 0.57 0.55 0.58 0.66 0.78 0.99 1.29 1.40 1.30 1.16 0.99 0.80 0.65 0.59 0.59 0.60 0.59 0.58 0.57 0.61 0.70 0.78 0.83 0.85 0.86 0.87 0.90 0.98 1.04 0.95 0.90 0.90 0.92 0.96 0.94 0.99 1.16
0.41 0.42 0.41 0.46 0.48 0.49 0.56 0.57 0.60 0.62 0.72 0.87 1.07 1.16 1.06 0.95 0.85 0.70 0.54 0.48 0.49 0.54 0.57 0.61 0.64 0.70 0.75 0.81 0.85 0.86 0.83 0.76 0.71 0.76 0.82 0.83 0.80 0.78 0.84 0.87 0.89 0.92 1.05
0.36 0.38 0.35 0.40 0.47 0.47 0.54 0.51 0.46 0.42 0.49 0.64 0.71 0.79 0.75 0.66 0.62 0.59 0.53 0.50 0.53 0.53 0.59 0.65 0.69 0.70 0.68 0.65 0.62 0.63 0.64 0.62 0.58 0.54 0.55 0.60 0.65 0.67 0.69 0.71 0.83 0.91 0.96
0.26 0.25 0.30 0.34 0.35 0.34 0.35 0.30 0.29 0.33 0.40 0.48 0.54 0.64 0.72 0.67 0.59 0.56 0.54 0.51 0.54 0.57 0.61 0.64 0.69 0.70 0.57 0.60 0.52 0.45 0.46 0.50 0.51 0.54 0.54 0.52 0.51 0.52 0.52 0.53 0.60 0.73 0.82
0.23 0.19 0.25 0.29 0.26 0.25 0.25 0.27 0.29 0.36 0.45 0.53 0.61 0.69 0.76 0.74 0.70 0.63 0.64 0.61 0.63 0.65 0.65 0.64 0.64 0.64 0.65 0.65 0.55 0.41 0.37 0.40 0.44 0.48 0.51 0.45 0.42 0.47 0.48 0.50 0.49 0.50 0.58
0.22 0.18 0.19 0.22 0.25 0.27 0.28 0.31 0.37 0.46 0.53 0.61 0.70 0.80 0.85 0.82 0.81 0.83 0.86 0.86 0.85 0.82 0.79 0.74 0.70 0.74 0.71 0.65 0.52 0.43 0.37 0.38 0.41 0.45 0.49 0.48 0.42 0.41 0.48 0.53 0.51 0.46 0.46
0.24 0.23 0.21 0.26 0.32 0.35 0.35 0.44 0.52 0.61 0.70 0.76 0.83 0.91 0.99 1.01 1.01 1.04 1.04 1.07 1.08 0.97 0.88 0.82 0.81 0.79 0.80 0.75 0.59 0.52 0.47 0.48 0.48 0.50 0.50 0.49 0.46 0.46 0.44 0.49 0.53 0.54 0.52
0.28 0.29 0.28 0.35 0.42 0.47 0.52 0.61 0.68 0.74 0.84 0.91 1.05 1.20 1.31 1.33 1.31 1.36 1.34 1.28 1.22 1.12 1.10 1.05 1.03 1.02 1.07 1.11 0.90 0.78 0.70 0.69 0.68 0.72 0.68 0.58 0.51 0.51 0.49 0.50 0.56 0.56 0.56
0.35 0.33 0.33 0.39 0.51 0.59 0.70 0.82 0.95 1.03 0.98 1.04 1.19 1.39 1.52 1.59 1.63 1.71 1.68 1.61 1.56 1.53 1.48 1.36 1.32 1.34 1.35 1.38 1.15 1.00 0.91 0.92 0.98 0.97 0.89 0.83 0.72 0.62 0.61 0.58 0.59 0.55 0.56
0.40 0.40 0.39 0.48 0.59 0.73 0.83 0.94 1.02 1.00 1.01 1.08 1.21 1.36 1.50 1.54 1.63 1.81 1.85 1.84 1.82 1.75 1.70 1.64 1.49 1.46 1.44 1.34 1.18 0.99 0.88 0.96 1.10 1.16 1.09 1.01 0.86 0.68 0.61 0.54 0.51 0.48 0.46
0.39 0.40 0.44 0.58 0.72 0.89 1.00 1.08 1.02 1.06 1.09 1.13 1.27 1.42 1.51 1.57 1.67 1.71 1.71 1.72 1.76 1.74 1.66 1.64 1.55 1.50 1.51 1.44 1.16 0.97 0.88 0.88 1.00 1.14 1.15 1.01 0.86 0.73 0.62 0.55 0.52 0.48 0.45
0.34 0.37 0.42 0.52 0.62 0.74 0.86 1.01 1.08 1.14 1.19 1.26 1.32 1.41 1.52 1.55 1.57 1.68 1.76 1.82 1.90 1.95 1.85 1.74 1.65 1.59 1.54 1.45 1.29 1.12 1.01 1.02 1.08 1.17 1.21 1.09 0.98 0.86 0.79 0.70 0.61 0.57 0.60
0.33 0.36 0.43 0.50 0.56 0.63 0.71 0.80 0.89 1.02 1.13 1.20 1.26 1.31 1.37 1.45 1.54 1.61 1.67 1.66 1.71 1.69 1.64 1.57 1.56 1.56 1.53 1.38 1.29 1.19 1.07 1.12 1.20 1.24 1.32 1.23 1.18 1.09 1.01 0.93 0.88 0.86 0.85
0.38 0.41 0.43 0.47 0.52 0.58 0.70 0.77 0.86 1.01 1.16 1.25 1.28 1.24 1.23 1.30 1.36 1.43 1.43 1.37 1.28 1.25 1.19 1.18 1.19 1.18 1.13 1.05 0.95 0.92 0.92 0.96 1.08 1.15 1.31 1.37 1.35 1.31 1.24 1.13 1.04 0.99 0.94